When you browse on this site, cookies collect data to enhance your experience and personalize the content and advertising you see.
Visit our Privacy Policy to learn more. By continuing to use the site, you agree to this use of cookies and data.
  • In United Kingdom
  • List of Countries
  • For 7 days
  • Water Temperature
  • Weather Map
  • Weather Widgets
  • user-avatar
    Login

    Hourly Weather Pivni

    Today, 17 August, Saturday

    Time Temperature Precipitation Wind Pressure Humidity
    00:00 +17°C° 0 mm 4 mps 751 mmHg 82%
    01:00 +15°C° 0 mm 4 mps 751 mmHg 82%
    02:00 +15°C° 0 mm 4 mps 752 mmHg 84%
    03:00 +14°C° 0 mm 4 mps 752 mmHg 84%
    04:00 +14°C° 0 mm 4 mps 751 mmHg 84%
    05:00 +13°C° 0 mm 4 mps 751 mmHg 83%
    06:00 +15°C° 0 mm 4 mps 752 mmHg 78%
    07:00 +17°C° 0 mm 4 mps 752 mmHg 72%
    08:00 +19°C° 0 mm 4 mps 752 mmHg 67%
    09:00 +20°C° 0 mm 4 mps 752 mmHg 63%
    10:00 +21°C° 0 mm 5 mps 752 mmHg 58%
    11:00 +22°C° 0 mm 5 mps 752 mmHg 54%
    12:00 +22°C° 0 mm 5 mps 751 mmHg 54%
    13:00 +23°C° 0 mm 5 mps 751 mmHg 53%
    14:00 +23°C° 0 mm 5 mps 751 mmHg 53%
    15:00 +23°C° 0 mm 5 mps 751 mmHg 53%
    16:00 +23°C° 0 mm 5 mps 751 mmHg 54%
    17:00 +23°C° 0 mm 5 mps 751 mmHg 55%
    18:00 +22°C° 0 mm 4 mps 751 mmHg 58%
    19:00 +21°C° 0 mm 4 mps 752 mmHg 61%
    20:00 +20°C° 0 mm 3 mps 752 mmHg 65%
    21:00 +19°C° 0 mm 3 mps 752 mmHg 69%
    22:00 +18°C° 0 mm 3 mps 752 mmHg 74%
    23:00 +17°C° 0 mm 3 mps 752 mmHg 78%

    Tomorrow, 18 August, Sunday

    Time Temperature Precipitation Wind Pressure Humidity
    00:00 +16°C° 0 mm 3 mps 752 mmHg 81%
    01:00 +16°C° 0 mm 3 mps 752 mmHg 83%
    02:00 +16°C° 0 mm 3 mps 752 mmHg 85%
    03:00 +14°C° 0 mm 3 mps 752 mmHg 86%
    04:00 +14°C° 0 mm 3 mps 752 mmHg 87%
    05:00 +13°C° 0 mm 3 mps 753 mmHg 88%
    06:00 +15°C° 0 mm 4 mps 753 mmHg 80%
    07:00 +18°C° 0 mm 4 mps 753 mmHg 72%
    08:00 +20°C° 0 mm 5 mps 753 mmHg 65%
    09:00 +21°C° 0 mm 5 mps 753 mmHg 58%
    10:00 +23°C° 0 mm 5 mps 753 mmHg 51%
    11:00 +26°C° 0 mm 5 mps 753 mmHg 44%
    12:00 +26°C° 0 mm 5 mps 753 mmHg 41%
    13:00 +27°C° 0 mm 5 mps 753 mmHg 38%
    14:00 +28°C° 0 mm 5 mps 753 mmHg 35%
    15:00 +27°C° 0 mm 5 mps 753 mmHg 38%
    16:00 +27°C° 0 mm 5 mps 753 mmHg 40%
    17:00 +27°C° 0 mm 5 mps 754 mmHg 43%
    18:00 +25°C° 0 mm 4 mps 754 mmHg 48%
    19:00 +22°C° 0 mm 3 mps 754 mmHg 54%
    20:00 +21°C° 0 mm 3 mps 755 mmHg 60%
    21:00 +20°C° 0 mm 2 mps 755 mmHg 64%
    22:00 +19°C° 0 mm 2 mps 755 mmHg 67%
    23:00 +19°C° 0 mm 2 mps 755 mmHg 71%

    Day after tomorrow, 19 August, Monday

    Time Temperature Precipitation Wind Pressure Humidity
    00:00 +18°C° 0 mm 2 mps 756 mmHg 74%
    01:00 +18°C° 0 mm 2 mps 756 mmHg 76%
    02:00 +17°C° 0 mm 2 mps 756 mmHg 79%
    03:00 +17°C° 0 mm 2 mps 756 mmHg 80%
    04:00 +17°C° 0 mm 2 mps 756 mmHg 81%
    05:00 +16°C° 0 mm 3 mps 756 mmHg 82%
    06:00 +18°C° 0 mm 3 mps 757 mmHg 75%
    07:00 +20°C° 0 mm 3 mps 757 mmHg 67%
    08:00 +22°C° 0 mm 4 mps 757 mmHg 59%
    09:00 +24°C° 0 mm 3 mps 757 mmHg 55%
    10:00 +26°C° 0 mm 3 mps 757 mmHg 50%
    11:00 +27°C° 0 mm 3 mps 757 mmHg 46%
    12:00 +28°C° 0 mm 4 mps 757 mmHg 44%
    13:00 +28°C° 0 mm 4 mps 757 mmHg 42%
    14:00 +29°C° 0 mm 4 mps 757 mmHg 40%
    15:00 +29°C° 0 mm 4 mps 756 mmHg 40%
    16:00 +29°C° 0 mm 4 mps 756 mmHg 40%
    17:00 +29°C° 0 mm 4 mps 756 mmHg 41%
    18:00 +27°C° 0 mm 3 mps 756 mmHg 45%
    19:00 +26°C° 0 mm 3 mps 756 mmHg 49%
    20:00 +24°C° 0 mm 3 mps 757 mmHg 53%
    21:00 +24°C° 0 mm 3 mps 757 mmHg 57%
    22:00 +22°C° 0 mm 3 mps 757 mmHg 61%
    23:00 +21°C° 0 mm 3 mps 757 mmHg 65%

    20 August, Tuesday

    Time Temperature Precipitation Wind Pressure Humidity
    00:00 +21°C° 0 mm 3 mps 757 mmHg 67%
    01:00 +20°C° 0 mm 3 mps 757 mmHg 69%
    02:00 +20°C° 0 mm 3 mps 757 mmHg 72%
    03:00 +20°C° 0 mm 3 mps 757 mmHg 74%
    04:00 +19°C° 0 mm 3 mps 757 mmHg 76%
    05:00 +19°C° 0 mm 3 mps 757 mmHg 78%
    06:00 +21°C° 0 mm 3 mps 757 mmHg 71%
    07:00 +24°C° 0 mm 3 mps 758 mmHg 65%
    08:00 +26°C° 0 mm 4 mps 758 mmHg 58%
    09:00 +27°C° 0 mm 4 mps 758 mmHg 52%
    10:00 +29°C° 0 mm 4 mps 758 mmHg 46%
    11:00 +30°C° 0 mm 4 mps 758 mmHg 41%
    12:00 +32°C° 0 mm 4 mps 757 mmHg 40%
    13:00 +33°C° 0 mm 4 mps 757 mmHg 38%
    14:00 +33°C° 0 mm 4 mps 757 mmHg 37%
    15:00 +33°C° 0 mm 5 mps 756 mmHg 39%
    16:00 +33°C° 0 mm 5 mps 756 mmHg 41%
    17:00 +32°C° 0 mm 5 mps 756 mmHg 42%
    18:00 +30°C° 0 mm 5 mps 756 mmHg 47%
    19:00 +28°C° 0 mm 4 mps 756 mmHg 52%
    20:00 +26°C° 0 mm 3 mps 756 mmHg 57%
    21:00 +26°C° 0 mm 4 mps 756 mmHg 59%
    22:00 +25°C° 0 mm 4 mps 756 mmHg 61%
    23:00 +25°C° 0 mm 4 mps 757 mmHg 63%

    21 August, Wednesday

    Time Temperature Precipitation Wind Pressure Humidity
    00:00 +23°C° 0 mm 4 mps 757 mmHg 67%
    01:00 +23°C° 0 mm 4 mps 756 mmHg 71%
    02:00 +22°C° 0 mm 4 mps 756 mmHg 75%
    03:00 +22°C° 0 mm 4 mps 756 mmHg 78%
    04:00 +21°C° 0 mm 4 mps 756 mmHg 80%
    05:00 +21°C° 0 mm 4 mps 756 mmHg 83%
    06:00 +23°C° 0 mm 4 mps 756 mmHg 76%
    07:00 +26°C° 0 mm 5 mps 756 mmHg 68%
    08:00 +28°C° 0 mm 5 mps 756 mmHg 61%
    09:00 +29°C° 0 mm 5 mps 756 mmHg 55%
    10:00 +32°C° 0 mm 5 mps 756 mmHg 49%
    11:00 +33°C° 0 mm 4 mps 755 mmHg 43%
    12:00 +34°C° 0 mm 4 mps 755 mmHg 40%
    13:00 +35°C° 0 mm 5 mps 754 mmHg 37%
    14:00 +36°C° 0 mm 5 mps 754 mmHg 34%
    15:00 +35°C° 0 mm 5 mps 754 mmHg 34%
    16:00 +35°C° 0 mm 5 mps 753 mmHg 35%
    17:00 +35°C° 0 mm 5 mps 753 mmHg 36%
    18:00 +33°C° 0 mm 5 mps 753 mmHg 40%
    19:00 +30°C° 0 mm 5 mps 753 mmHg 44%
    20:00 +29°C° 0 mm 5 mps 753 mmHg 48%
    21:00 +28°C° 0 mm 5 mps 753 mmHg 49%
    22:00 +28°C° 0 mm 5 mps 754 mmHg 50%
    23:00 +27°C° 0 mm 6 mps 754 mmHg 51%

    22 August, Thursday

    Time Temperature Precipitation Wind Pressure Humidity
    00:00 +27°C° 0 mm 6 mps 754 mmHg 53%
    01:00 +27°C° 0 mm 6 mps 754 mmHg 56%
    02:00 +26°C° 0 mm 6 mps 754 mmHg 59%
    03:00 +26°C° 0 mm 6 mps 754 mmHg 60%
    04:00 +26°C° 0 mm 7 mps 754 mmHg 62%
    05:00 +24°C° 0 mm 7 mps 754 mmHg 63%
    06:00 +26°C° 0 mm 8 mps 754 mmHg 61%
    07:00 +27°C° 0 mm 8 mps 754 mmHg 60%
    08:00 +27°C° 0 mm 9 mps 754 mmHg 58%
    09:00 +29°C° 0 mm 9 mps 754 mmHg 54%
    10:00 +31°C° 0 mm 9 mps 754 mmHg 51%
    11:00 +32°C° 0 mm 9 mps 754 mmHg 47%
    12:00 +33°C° 0 mm 9 mps 754 mmHg 46%
    13:00 +33°C° 0 mm 9 mps 754 mmHg 44%
    14:00 +34°C° 0 mm 9 mps 754 mmHg 43%
    15:00 +33°C° 0 mm 9 mps 754 mmHg 44%
    16:00 +33°C° 0 mm 8 mps 754 mmHg 46%
    17:00 +32°C° 0 mm 8 mps 754 mmHg 47%
    18:00 +29°C° 0.2 mm 9 mps 754 mmHg 53%
    19:00 +28°C° 0.2 mm 9 mps 754 mmHg 59%
    20:00 +26°C° 0.2 mm 9 mps 754 mmHg 65%
    21:00 +24°C° 0.1 mm 9 mps 754 mmHg 69%
    22:00 +23°C° 0.1 mm 9 mps 754 mmHg 72%
    23:00 +23°C° 0.1 mm 9 mps 755 mmHg 75%
    Show more